This demonstration page uses our WeatherBlox Daily Observations layout. Learn more.

Left ArrowRight Arrow

44.8408, -93.29828

Hourly Observations for September 6, 2020

Temp ( °F °C ) Dew Point ( °F °C ) Humidity (%) Winds ( mph kmh ) Pressure ( in mb ) Visibility ( mi km ) Precip ( " mm )
12:53 am 00:53 Mostly Cloudy 67 19.4 54 12.2 63 63 SSE 12 19 30.01 1016 10 16 0.00 0.00
1:31 am 01:31 Cloudy with Thunderstorms 64 17.8 55 12.8 73 73 SSE 7 11 30.03 1017 8 13 0.00 0.00
1:53 am 01:53 Cloudy with Thunderstorms 62 16.7 57 13.9 84 84 ESE 14 22 29.97 1015 10 16 0.05 1.27
2:27 am 02:27 Cloudy 61 16.1 57 13.9 87 87 SE 14 22 29.91 1013 10 16 0.00 0.00
2:53 am 02:53 Cloudy 62 16.7 58 14.4 86 86 SE 13 20 29.91 1013 10 16 0.00 0.00
3:51 am 03:51 Cloudy 61 16 59 15 94 94 SSE 13 20 29.87 1012 10 16 0.00 0.00
3:53 am 03:53 Cloudy with Nearby Thunderstorms 61 16.1 59 15 93 93 SSE 13 20 29.87 1011 10 16 0.00 0.00
4:07 am 04:07 Cloudy with Thunderstorms 61 16.1 60 15.6 97 97 ESE 13 20 29.87 1012 10 16 0.00 0.00
4:25 am 04:25 Cloudy with Thunderstorms 61 16.1 60 15.6 97 97 SE 15 24 29.85 1011 3 4 0.12 3.05
4:30 am 04:30 Cloudy with Nearby Thunderstorms 61 16.1 60 15.6 97 97 SE 13 20 29.85 1011 6 10 0.12 3.05
4:43 am 04:43 Cloudy 61 16.1 61 16.1 100 100 SE 12 19 29.83 1010 10 16 0.12 3.05
4:51 am 04:51 Cloudy 63 17 61 16 94 94 SE 12 19 29.83 1010 10 16 0.12 3.05
4:53 am 04:53 Mostly Cloudy 62 16.7 61 16.1 96 96 SE 12 19 29.83 1010 10 16 0.12 3.05
5:53 am 05:53 Mostly Cloudy 61 16.1 61 16.1 100 100 SE 8 13 29.81 1009 10 16 0.01 0.25
6:53 am 06:53 Cloudy 62 16.7 62 16.7 100 100 SE 8 13 29.80 1009 10 16 0.00 0.00
7:53 am 07:53 Mostly Cloudy 64 17.8 62 16.7 93 93 SSE 7 11 29.77 1008 10 16 0.00 0.00
8:53 am 08:53 Partly Cloudy 68 20 62 16.7 81 81 S 10 17 29.74 1007 10 16 0.00 0.00
9:53 am 09:53 Mostly Sunny 72 22.2 63 17.2 73 73 S 14 22 29.72 1006 10 16 0.00 0.00
10:53 am 10:53 Mostly Cloudy 74 23.3 64 17.8 71 71 S 17 28 29.70 1006 10 16 0.00 0.00
11:53 am 11:53 Cloudy 76 24.4 65 18.3 69 69 SSW 13 20 29.68 1005 10 16 0.00 0.00
12:37 pm 12:37 Cloudy 76 24.4 66 18.9 72 72 SW 15 24 29.65 1004 10 16 0.00 0.00
12:53 pm 12:53 Cloudy 76 24.4 66 18.9 72 72 SW 12 19 29.67 1005 10 16 0.00 0.00
1:01 pm 13:01 Cloudy 76 24.4 66 18.9 72 72 SW 13 20 29.64 1004 10 16 0.00 0.00
1:34 pm 13:34 Cloudy 77 25 66 18.9 69 69 SW 13 20 29.63 1003 10 16 0.00 0.00
1:53 pm 13:53 Cloudy 78 25.6 67 19.4 69 69 WSW 16 26 29.66 1004 10 16 0.00 0.00
2:53 pm 14:53 Mostly Cloudy 79 26.1 67 19.4 67 67 W 18 30 29.66 1004 10 16 0.00 0.00
3:09 pm 15:09 Mostly Cloudy 80 26.7 68 20 67 67 W 14 22 29.63 1003 10 16 0.00 0.00
3:34 pm 15:34 Mostly Cloudy 82 27.8 68 20 63 63 W 13 20 29.61 1003 10 16 0.00 0.00
3:53 pm 15:53 Mostly Cloudy 83 28.3 67 19.4 59 59 WNW 18 30 29.65 1004 10 16 0.00 0.00
4:53 pm 16:53 Mostly Cloudy 83 28.3 61 16.1 48 48 WNW 14 22 29.66 1005 10 16 0.00 0.00
5:53 pm 17:53 Mostly Cloudy 79 26.1 56 13.3 45 45 NW 12 19 29.70 1006 10 16 0.00 0.00
6:53 pm 18:53 Cloudy 76 24.4 55 12.8 48 48 WNW 16 26 29.72 1007 10 16 0.00 0.00
7:53 pm 19:53 Cloudy 74 23.3 54 12.2 50 50 WNW 16 26 29.74 1007 10 16 0.00 0.00
8:53 pm 20:53 Cloudy 72 22.2 55 12.8 55 55 WNW 17 28 29.77 1008 10 16 0.00 0.00
9:53 pm 21:53 Cloudy 70 21.1 51 10.6 51 51 NW 20 31 29.78 1009 10 16 0.00 0.00
10:53 pm 22:53 Cloudy 68 20 50 10 53 53 NW 17 28 29.81 1010 10 16 0.00 0.00
11:53 pm 23:53 Cloudy 67 19.4 45 7.2 45 45 NW 20 31 29.83 1010 10 16 0.00 0.00

Powered by AerisWeather